�������C�����ː����j�^�v���󋵏��
Date,Time,Cs137(Bq/L),Cs134(Bq/L),�S��(Bq/L)
2022/04/07,00:00,ND,ND,15
2022/04/07,00:10,ND,ND,15
2022/04/07,00:20,ND,ND,14
2022/04/07,00:30,ND,ND,16
2022/04/07,00:40,ND,ND,14
2022/04/07,00:50,ND,ND,16
2022/04/07,01:00,ND,ND,13
2022/04/07,01:10,ND,ND,13
2022/04/07,01:20,ND,ND,13
2022/04/07,01:30,ND,ND,12
2022/04/07,01:40,ND,ND,12
2022/04/07,01:50,ND,ND,10
2022/04/07,02:00,ND,ND,12
2022/04/07,02:10,ND,ND,10
2022/04/07,02:20,ND,ND,12
2022/04/07,02:30,ND,ND,10
2022/04/07,02:40,ND,ND,11
2022/04/07,02:50,-,-,14
2022/04/07,03:00,-,-,14
2022/04/07,03:10,-,-,15
2022/04/07,03:20,-,-,15
2022/04/07,03:30,-,-,16
2022/04/07,03:40,-,-,18
2022/04/07,03:50,-,-,16
2022/04/07,04:00,-,-,15
2022/04/07,04:10,-,-,15
2022/04/07,04:20,-,-,13
2022/04/07,04:30,-,-,14
2022/04/07,04:40,-,-,14
2022/04/07,04:50,-,-,14
2022/04/07,05:00,-,-,11
2022/04/07,05:10,-,-,10
2022/04/07,05:20,-,-,11
2022/04/07,05:30,-,-,9.6
2022/04/07,05:40,-,-,9.2
2022/04/07,05:50,-,-,ND
2022/04/07,06:00,-,-,10
2022/04/07,06:10,-,-,11
2022/04/07,06:20,-,-,12
2022/04/07,06:30,-,-,14
2022/04/07,06:40,-,-,15
2022/04/07,06:50,-,-,17
2022/04/07,07:00,-,-,14
2022/04/07,07:10,-,-,12
2022/04/07,07:20,-,-,11
2022/04/07,07:30,-,-,12
2022/04/07,07:40,-,-,14
2022/04/07,07:50,-,-,12
2022/04/07,08:00,-,-,12
2022/04/07,08:10,-,-,13
2022/04/07,08:20,-,-,13
2022/04/07,08:30,-,-,11
2022/04/07,08:40,-,-,ND
2022/04/07,08:50,-,-,ND
2022/04/07,09:00,-,-,9.6
2022/04/07,09:10,-,-,9.0
2022/04/07,09:20,-,-,11
2022/04/07,09:30,-,-,10
2022/04/07,09:40,-,-,11
2022/04/07,09:50,-,-,11
2022/04/07,10:00,-,-,9.7
2022/04/07,10:10,-,-,10
2022/04/07,10:20,-,-,ND
2022/04/07,10:30,-,-,ND
2022/04/07,10:40,-,-,11
2022/04/07,10:50,-,-,13
2022/04/07,11:00,-,-,12
2022/04/07,11:10,-,-,13
2022/04/07,11:20,-,-,14
2022/04/07,11:30,-,-,11
2022/04/07,11:40,-,-,11
2022/04/07,11:50,-,-,11
2022/04/07,12:00,-,-,15
2022/04/07,12:10,-,-,12
2022/04/07,12:20,-,-,13
2022/04/07,12:30,-,-,16
2022/04/07,12:40,-,-,13
2022/04/07,12:50,-,-,12
2022/04/07,13:00,-,-,9.7
2022/04/07,13:10,-,-,12
2022/04/07,13:20,-,-,13
2022/04/07,13:30,-,-,12
2022/04/07,13:40,-,-,14
2022/04/07,13:50,-,-,15
2022/04/07,14:00,-,-,17
2022/04/07,14:10,-,-,16
2022/04/07,14:20,-,-,17
2022/04/07,14:30,-,-,17
2022/04/07,14:40,-,-,15
2022/04/07,14:50,-,-,14
2022/04/07,15:00,-,-,14
2022/04/07,15:10,-,-,16
2022/04/07,15:20,-,-,15
2022/04/07,15:30,-,-,17
2022/04/07,15:40,-,-,18
2022/04/07,15:50,-,-,17
2022/04/07,16:00,-,-,18
2022/04/07,16:10,-,-,14
2022/04/07,16:20,-,-,14
2022/04/07,16:30,-,-,12
2022/04/07,16:40,-,-,14
2022/04/07,16:50,-,-,14
2022/04/07,17:00,-,-,11
2022/04/07,17:10,-,-,13
2022/04/07,17:20,-,-,14
2022/04/07,17:30,-,-,15
2022/04/07,17:40,-,-,13
2022/04/07,17:50,-,-,13
2022/04/07,18:00,-,-,16
2022/04/07,18:10,-,-,17
2022/04/07,18:20,-,-,16
2022/04/07,18:30,-,-,15
2022/04/07,18:40,-,-,18
2022/04/07,18:50,-,-,18
2022/04/07,19:00,-,-,18
2022/04/07,19:10,-,-,18
2022/04/07,19:20,-,-,18
2022/04/07,19:30,-,-,15
2022/04/07,19:40,-,-,13
2022/04/07,19:50,-,-,14
2022/04/07,20:00,-,-,14
2022/04/07,20:10,-,-,10
2022/04/07,20:20,-,-,12
2022/04/07,20:30,-,-,14
2022/04/07,20:40,-,-,16
2022/04/07,20:50,-,-,16
2022/04/07,21:00,-,-,14
2022/04/07,21:10,-,-,15
2022/04/07,21:20,-,-,13
2022/04/07,21:30,-,-,14
2022/04/07,21:40,-,-,12
2022/04/07,21:50,-,-,14
2022/04/07,22:00,-,-,14
2022/04/07,22:10,-,-,18
2022/04/07,22:20,-,-,20
2022/04/07,22:30,-,-,19
2022/04/07,22:40,-,-,21
2022/04/07,22:50,-,-,21
2022/04/07,23:00,-,-,22
2022/04/07,23:10,-,-,20
2022/04/07,23:20,-,-,20
2022/04/07,23:30,-,-,19
2022/04/07,23:40,-,-,18
2022/04/07,23:50,-,-,16
